| time (UTC) | temp F | wind direction | speed MPH | gust MPH | rain 1hr in | rain 24hr in | rain mn in | humidity % | barometer mb |
| 20260901220145 | 95 | 233 | 0.0 | 0.0 | 0.00 | 0.00 | 0.00 | 52 | 1016.5 |
| 20260901215644 | 96 | 261 | 1.0 | 1.0 | 0.00 | 0.00 | 0.00 | 50 | 1016.5 |
| 20260901215139 | 96 | 263 | 1.0 | 1.0 | 0.00 | 0.00 | 0.00 | 49 | 1016.5 |
| 20260901214637 | 98 | 235 | 0.0 | 0.0 | 0.00 | 0.00 | 0.00 | 46 | 1016.5 |
| 20260901214136 | 98 | 228 | 0.0 | 0.0 | 0.00 | 0.00 | 0.00 | 46 | 1016.5 |
| 20260901213631 | 96 | 274 | 0.0 | 1.0 | 0.00 | 0.00 | 0.00 | 46 | 1016.5 |
| 20260901213125 | 97 | 243 | 0.0 | 1.0 | 0.00 | 0.00 | 0.00 | 48 | 1016.6 |
| 20260901212620 | 98 | 240 | 0.0 | 1.0 | 0.00 | 0.00 | 0.00 | 47 | 1016.6 |
| 20260901212116 | 98 | 225 | 0.0 | 1.0 | 0.00 | 0.00 | 0.00 | 46 | 1016.6 |
| 20260901211610 | 97 | 247 | 0.0 | 0.0 | 0.00 | 0.00 | 0.00 | 46 | 1016.6 |
| 20260901211107 | 97 | 238 | 1.0 | 3.0 | 0.00 | 0.00 | 0.00 | 48 | 1016.7 |
| 20260901210603 | 97 | 257 | 0.0 | 2.0 | 0.00 | 0.00 | 0.00 | 48 | 1016.7 |
| 20260901210058 | 98 | 240 | 0.0 | 1.0 | 0.00 | 0.00 | 0.00 | 48 | 1016.7 |
| 20260901205553 | 97 | 12 | 2.0 | 2.0 | 0.00 | 0.00 | 0.00 | 46 | 1016.8 |
| 20260901205048 | 98 | 3 | 0.0 | 1.0 | 0.00 | 0.00 | 0.00 | 46 | 1016.7 |
| 20260901204544 | 97 | 225 | 0.0 | 0.0 | 0.00 | 0.00 | 0.00 | 46 | 1016.8 |
| 20260901204038 | 97 | 17 | 1.0 | 1.0 | 0.00 | 0.00 | 0.00 | 47 | 1016.7 |
| 20260901203533 | 97 | 235 | 0.0 | 1.0 | 0.00 | 0.00 | 0.00 | 47 | 1016.8 |
| 20260901203028 | 98 | 228 | 0.0 | 1.0 | 0.00 | 0.00 | 0.00 | 46 | 1017.0 |
| 20260901202523 | 97 | 225 | 0.0 | 3.0 | 0.00 | 0.00 | 0.00 | 46 | 1016.9 |
| 20260901202019 | 98 | 318 | 1.0 | 2.0 | 0.00 | 0.00 | 0.00 | 46 | 1017.0 |
| 20260901201514 | 97 | 20 | 2.0 | 3.0 | 0.00 | 0.00 | 0.00 | 46 | 1017.0 |
| 20260901201008 | 98 | 326 | 2.0 | 3.0 | 0.00 | 0.00 | 0.00 | 46 | 1017.0 |
| 20260901200503 | 96 | 226 | 0.0 | 2.0 | 0.00 | 0.00 | 0.00 | 48 | 1017.2 |
| 20260901200002 | 96 | 229 | 0.0 | 2.0 | 0.00 | 0.00 | 0.00 | 49 | 1017.1 |
| 20260901195500 | 96 | 235 | 1.0 | 2.0 | 0.00 | 0.00 | 0.00 | 49 | 1017.1 |
| 20260901194954 | 97 | 19 | 2.0 | 3.0 | 0.00 | 0.00 | 0.00 | 45 | 1017.1 |
| 20260901194450 | 97 | 221 | 0.0 | 2.0 | 0.00 | 0.00 | 0.00 | 45 | 1017.2 |
| 20260901193946 | 97 | 211 | 0.0 | 0.0 | 0.00 | 0.00 | 0.00 | 46 | 1017.3 |
| 20260901193445 | 97 | 0 | 3.0 | 3.0 | 0.00 | 0.00 | 0.00 | 45 | 1017.2 |
| 20260901192944 | 97 | 271 | 0.0 | 3.0 | 0.00 | 0.00 | 0.00 | 46 | 1017.1 |
| 20260901192440 | 97 | 228 | 0.0 | 2.0 | 0.00 | 0.00 | 0.00 | 45 | 1017.1 |
| 20260901191936 | 98 | 265 | 1.0 | 2.0 | 0.00 | 0.00 | 0.00 | 46 | 1017.3 |
| 20260901191432 | 98 | 219 | 0.0 | 1.0 | 0.00 | 0.00 | 0.00 | 44 | 1017.4 |
| 20260901190928 | 98 | 337 | 1.0 | 1.0 | 0.00 | 0.00 | 0.00 | 46 | 1017.4 |
| 20260901190427 | 97 | 157 | 0.0 | 2.0 | 0.00 | 0.00 | 0.00 | 46 | 1017.5 |
| 20260901185925 | 96 | 239 | 0.0 | 1.0 | 0.00 | 0.00 | 0.00 | 50 | 1017.6 |
| 20260901185426 | 97 | 232 | 0.0 | 1.0 | 0.00 | 0.00 | 0.00 | 44 | 1017.5 |
| 20260901184926 | 97 | 20 | 2.0 | 2.0 | 0.00 | 0.00 | 0.00 | 43 | 1017.6 |
| 20260901184421 | 97 | 253 | 1.0 | 2.0 | 0.00 | 0.00 | 0.00 | 45 | 1017.6 |
| 20260901183916 | 97 | 353 | 1.0 | 3.0 | 0.00 | 0.00 | 0.00 | 45 | 1017.9 |
| 20260901183416 | 97 | 24 | 3.0 | 4.0 | 0.00 | 0.00 | 0.00 | 46 | 1018.0 |
| 20260901182912 | 97 | 231 | 0.0 | 1.0 | 0.00 | 0.00 | 0.00 | 49 | 1018.2 |
| 20260901182408 | 97 | 206 | 2.0 | 3.0 | 0.00 | 0.00 | 0.00 | 48 | 1017.9 |
| 20260901181902 | 96 | 237 | 0.0 | 1.0 | 0.00 | 0.00 | 0.00 | 47 | 1017.8 |
| 20260901181356 | 97 | 53 | 2.0 | 2.0 | 0.00 | 0.00 | 0.00 | 44 | 1017.9 |
| 20260901180855 | 97 | 268 | 3.0 | 3.0 | 0.00 | 0.00 | 0.00 | 47 | 1017.9 |
| 20260901180354 | 96 | 235 | 0.0 | 1.0 | 0.00 | 0.00 | 0.00 | 48 | 1017.7 |
| 20260901175853 | 96 | 90 | 2.0 | 3.0 | 0.00 | 0.00 | 0.00 | 49 | 1017.7 |
| 20260901175348 | 96 | 238 | 1.0 | 3.0 | 0.00 | 0.00 | 0.00 | 49 | 1017.6 |
| 20260901174843 | 97 | 237 | 0.0 | 3.0 | 0.00 | 0.00 | 0.00 | 56 | 1017.6 |
| 20260901174339 | 97 | 65 | 0.0 | 0.0 | 0.00 | 0.00 | 0.00 | 47 | 1017.8 |
| 20260901173834 | 97 | 254 | 1.0 | 3.0 | 0.00 | 0.00 | 0.00 | 50 | 1017.7 |
| 20260901173329 | 95 | 237 | 0.0 | 1.0 | 0.00 | 0.00 | 0.00 | 51 | 1017.8 |
| 20260901172826 | 96 | 97 | 1.0 | 3.0 | 0.00 | 0.00 | 0.00 | 52 | 1017.8 |
| 20260901172325 | 96 | 219 | 1.0 | 2.0 | 0.00 | 0.00 | 0.00 | 48 | 1018.0 |
| 20260901171823 | 97 | 240 | 0.0 | 1.0 | 0.00 | 0.00 | 0.00 | 55 | 1017.8 |
| 20260901171323 | 95 | 263 | 0.0 | 1.0 | 0.00 | 0.00 | 0.00 | 50 | 1018.0 |
| 20260901170822 | 96 | 6 | 1.0 | 3.0 | 0.00 | 0.00 | 0.00 | 49 | 1017.9 |
| 20260901170316 | 95 | 236 | 2.0 | 2.0 | 0.00 | 0.00 | 0.00 | 52 | 1017.8 |
| 20260901165815 | 95 | 91 | 2.0 | 3.0 | 0.00 | 0.00 | 0.00 | 50 | 1017.8 |
| 20260901165310 | 94 | 209 | 1.0 | 2.0 | 0.00 | 0.00 | 0.00 | 51 | 1017.9 |
| 20260901164807 | 95 | 219 | 1.0 | 4.0 | 0.00 | 0.00 | 0.00 | 48 | 1018.1 |
| 20260901164302 | 95 | 260 | 1.0 | 3.0 | 0.00 | 0.00 | 0.00 | 52 | 1018.4 |
| 20260901163757 | 95 | 213 | 1.0 | 4.0 | 0.00 | 0.00 | 0.00 | 49 | 1018.3 |
| 20260901163256 | 95 | 237 | 0.0 | 2.0 | 0.00 | 0.00 | 0.00 | 52 | 1018.3 |
| 20260901162751 | 95 | 243 | 0.0 | 1.0 | 0.00 | 0.00 | 0.00 | 53 | 1018.6 |
| 20260901162251 | 94 | 216 | 2.0 | 3.0 | 0.00 | 0.00 | 0.00 | 52 | 1018.6 |
| 20260901161749 | 95 | 346 | 2.0 | 8.0 | 0.00 | 0.00 | 0.00 | 52 | 1018.6 |
| 20260901161244 | 94 | 272 | 1.0 | 4.0 | 0.00 | 0.00 | 0.00 | 54 | 1018.8 |
| 20260901160740 | 93 | 229 | 0.0 | 1.0 | 0.00 | 0.00 | 0.00 | 58 | 1018.8 |
| 20260901160236 | 93 | 218 | 0.0 | 2.0 | 0.00 | 0.00 | 0.00 | 57 | 1018.7 |
| 20260901155735 | 93 | 165 | 0.0 | 2.0 | 0.00 | 0.00 | 0.00 | 59 | 1018.8 |
| 20260901155230 | 93 | 236 | 1.0 | 4.0 | 0.00 | 0.00 | 0.00 | 61 | 1018.7 |
| 20260901154725 | 93 | 237 | 1.0 | 1.0 | 0.00 | 0.00 | 0.00 | 61 | 1018.7 |
| 20260901154220 | 92 | 241 | 2.0 | 2.0 | 0.00 | 0.00 | 0.00 | 61 | 1019.0 |
| 20260901153716 | 93 | 217 | 0.0 | 2.0 | 0.00 | 0.00 | 0.00 | 66 | 1018.7 |
| 20260901153209 | 93 | 201 | 1.0 | 1.0 | 0.00 | 0.00 | 0.00 | 60 | 1018.8 |
| 20260901152704 | 93 | 233 | 0.0 | 2.0 | 0.00 | 0.00 | 0.00 | 66 | 1019.0 |
| 20260901152202 | 91 | 51 | 1.0 | 2.0 | 0.00 | 0.00 | 0.00 | 64 | 1018.9 |
| 20260901151659 | 92 | 223 | 1.0 | 2.0 | 0.00 | 0.00 | 0.00 | 64 | 1019.2 |
| 20260901151158 | 91 | 125 | 1.0 | 1.0 | 0.00 | 0.00 | 0.00 | 63 | 1019.1 |
| 20260901150658 | 92 | 297 | 0.0 | 4.0 | 0.00 | 0.00 | 0.00 | 65 | 1019.2 |
| 20260901150156 | 90 | 230 | 1.0 | 2.0 | 0.00 | 0.00 | 0.00 | 70 | 1018.9 |
| 20260901145653 | 91 | 220 | 1.0 | 2.0 | 0.00 | 0.00 | 0.00 | 65 | 1019.2 |
| 20260901145148 | 91 | 351 | 1.0 | 2.0 | 0.00 | 0.00 | 0.00 | 66 | 1019.2 |
| 20260901144644 | 91 | 228 | 0.0 | 2.0 | 0.00 | 0.00 | 0.00 | 66 | 1019.3 |
| 20260901144138 | 89 | 224 | 0.0 | 0.0 | 0.00 | 0.00 | 0.00 | 68 | 1019.4 |
| 20260901143633 | 88 | 211 | 0.0 | 0.0 | 0.00 | 0.00 | 0.00 | 71 | 1019.5 |
| 20260901143130 | 88 | 88 | 1.0 | 4.0 | 0.00 | 0.00 | 0.00 | 72 | 1019.4 |
| 20260901142626 | 87 | 219 | 0.0 | 0.0 | 0.00 | 0.00 | 0.00 | 75 | 1019.2 |
| 20260901142125 | 87 | 223 | 0.0 | 2.0 | 0.00 | 0.00 | 0.00 | 74 | 1019.2 |
| 20260901141620 | 89 | 219 | 1.0 | 2.0 | 0.00 | 0.00 | 0.00 | 71 | 1019.3 |
| 20260901141120 | 89 | 223 | 0.0 | 1.0 | 0.00 | 0.00 | 0.00 | 70 | 1019.3 |
| 20260901140619 | 88 | 246 | 1.0 | 1.0 | 0.00 | 0.00 | 0.00 | 73 | 1019.4 |
| 20260901140118 | 88 | 216 | 0.0 | 1.0 | 0.00 | 0.00 | 0.00 | 72 | 1019.3 |
| 20260901135618 | 87 | 172 | 1.0 | 2.0 | 0.00 | 0.00 | 0.00 | 74 | 1019.3 |
| 20260901135113 | 86 | 206 | 0.0 | 1.0 | 0.00 | 0.00 | 0.00 | 75 | 1019.3 |
| 20260901134609 | 86 | 220 | 0.0 | 1.0 | 0.00 | 0.00 | 0.00 | 76 | 1019.4 |
| 20260901134104 | 86 | 199 | 0.0 | 0.0 | 0.00 | 0.00 | 0.00 | 76 | 1019.2 |
| 20260901133603 | 86 | 197 | 0.0 | 1.0 | 0.00 | 0.00 | 0.00 | 77 | 1019.2 |
| 20260901133102 | 85 | 224 | 0.0 | 1.0 | 0.00 | 0.00 | 0.00 | 79 | 1019.3 |
| 20260901132556 | 86 | 230 | 1.0 | 1.0 | 0.00 | 0.00 | 0.00 | 77 | 1019.3 |
| 20260901132050 | 84 | 229 | 0.0 | 0.0 | 0.00 | 0.00 | 0.00 | 80 | 1019.3 |
| 20260901131551 | 84 | 233 | 1.0 | 1.0 | 0.00 | 0.00 | 0.00 | 79 | 1019.2 |
| 20260901131046 | 84 | 218 | 0.0 | 0.0 | 0.00 | 0.00 | 0.00 | 82 | 1019.3 |
| 20260901130545 | 83 | 201 | 0.0 | 0.0 | 0.00 | 0.00 | 0.00 | 83 | 1019.3 |
| 20260901130044 | 83 | 139 | 0.0 | 0.0 | 0.00 | 0.00 | 0.00 | 82 | 1019.3 |
| 20260901125542 | 83 | 220 | 0.0 | 1.0 | 0.00 | 0.00 | 0.00 | 82 | 1019.2 |
| 20260901125038 | 83 | 166 | 0.0 | 1.0 | 0.00 | 0.00 | 0.00 | 82 | 1019.4 |
| 20260901124538 | 82 | 190 | 0.0 | 1.0 | 0.00 | 0.00 | 0.00 | 84 | 1019.4 |
| 20260901124033 | 81 | 224 | 0.0 | 1.0 | 0.00 | 0.00 | 0.00 | 84 | 1019.3 |
| 20260901123527 | 82 | 212 | 0.0 | 1.0 | 0.00 | 0.00 | 0.00 | 84 | 1019.3 |
| 20260901123022 | 81 | 187 | 0.0 | 0.0 | 0.00 | 0.00 | 0.00 | 86 | 1019.4 |
| 20260901122520 | 79 | 187 | 0.0 | 0.0 | 0.00 | 0.00 | 0.00 | 89 | 1019.5 |
| 20260901122019 | 78 | 195 | 0.0 | 0.0 | 0.00 | 0.00 | 0.00 | 91 | 1019.3 |
| 20260901121514 | 77 | 255 | 0.0 | 0.0 | 0.00 | 0.00 | 0.00 | 94 | 1019.5 |
| 20260901121009 | 76 | 244 | 0.0 | 0.0 | 0.00 | 0.00 | 0.00 | 96 | 1019.4 |
| 20260901120503 | 76 | 244 | 0.0 | 0.0 | 0.00 | 0.00 | 0.00 | 96 | 1019.5 |
| 20260901115959 | 76 | 244 | 0.0 | 0.0 | 0.00 | 0.00 | 0.00 | 97 | 1019.5 |
| 20260901115454 | 75 | 244 | 0.0 | 0.0 | 0.00 | 0.00 | 0.00 | 98 | 1019.3 |
| 20260901114951 | 75 | 244 | 0.0 | 0.0 | 0.00 | 0.00 | 0.00 | 99 | 1019.3 |
| 20260901114446 | 75 | 244 | 0.0 | 0.0 | 0.00 | 0.00 | 0.00 | 99 | 1019.2 |
| 20260901113944 | 74 | 246 | 0.0 | 0.0 | 0.00 | 0.00 | 0.00 | 99 | 1019.3 |
| 20260901113444 | 74 | 246 | 0.0 | 0.0 | 0.00 | 0.00 | 0.00 | 99 | 1019.1 |
| 20260901112940 | 74 | 246 | 0.0 | 0.0 | 0.00 | 0.00 | 0.00 | 99 | 1018.9 |
| 20260901112435 | 74 | 248 | 0.0 | 0.0 | 0.00 | 0.00 | 0.00 | 99 | 1019.0 |
| 20260901111929 | 73 | 249 | 0.0 | 0.0 | 0.00 | 0.00 | 0.00 | 99 | 1019.0 |
| 20260901111428 | 73 | 230 | 0.0 | 0.0 | 0.00 | 0.00 | 0.00 | 99 | 1018.9 |
| 20260901110926 | 73 | 230 | 0.0 | 0.0 | 0.00 | 0.00 | 0.00 | 99 | 1018.8 |
| 20260901110423 | 73 | 230 | 0.0 | 0.0 | 0.00 | 0.00 | 0.00 | 99 | 1018.7 |
| 20260901105918 | 73 | 230 | 0.0 | 0.0 | 0.00 | 0.00 | 0.00 | 99 | 1018.8 |
| 20260901105414 | 73 | 230 | 0.0 | 0.0 | 0.00 | 0.00 | 0.00 | 99 | 1018.8 |
| 20260901104909 | 73 | 230 | 0.0 | 0.0 | 0.00 | 0.00 | 0.00 | 99 | 1018.8 |
| 20260901104404 | 73 | 233 | 0.0 | 0.0 | 0.00 | 0.00 | 0.00 | 99 | 1018.7 |
| 20260901103900 | 73 | 237 | 0.0 | 0.0 | 0.00 | 0.00 | 0.00 | 99 | 1018.9 |
| 20260901103354 | 73 | 241 | 0.0 | 0.0 | 0.00 | 0.00 | 0.00 | 99 | 1018.8 |
| 20260901102849 | 73 | 242 | 0.0 | 0.0 | 0.00 | 0.00 | 0.00 | 99 | 1018.7 |
| 20260901102348 | 73 | 243 | 0.0 | 0.0 | 0.00 | 0.00 | 0.00 | 99 | 1018.8 |
| 20260901101844 | 73 | 242 | 0.0 | 0.0 | 0.00 | 0.00 | 0.00 | 99 | 1018.6 |
| 20260901101339 | 73 | 242 | 0.0 | 0.0 | 0.00 | 0.00 | 0.00 | 99 | 1018.6 |
| 20260901100839 | 73 | 243 | 0.0 | 0.0 | 0.00 | 0.00 | 0.00 | 99 | 1018.7 |
| 20260901100339 | 73 | 243 | 0.0 | 0.0 | 0.00 | 0.00 | 0.00 | 99 | 1018.9 |
| 20260901095833 | 72 | 242 | 0.0 | 0.0 | 0.00 | 0.00 | 0.00 | 99 | 1018.8 |
| 20260901095330 | 72 | 243 | 0.0 | 0.0 | 0.00 | 0.00 | 0.00 | 99 | 1018.7 |
| 20260901094824 | 72 | 243 | 0.0 | 0.0 | 0.00 | 0.00 | 0.00 | 99 | 1018.8 |
| 20260901094319 | 72 | 243 | 0.0 | 0.0 | 0.00 | 0.00 | 0.00 | 99 | 1018.7 |
| 20260901093815 | 72 | 243 | 0.0 | 0.0 | 0.00 | 0.00 | 0.00 | 99 | 1018.5 |
| 20260901093313 | 72 | 239 | 0.0 | 0.0 | 0.00 | 0.00 | 0.00 | 99 | 1018.7 |
| 20260901092810 | 72 | 239 | 0.0 | 0.0 | 0.00 | 0.00 | 0.00 | 99 | 1018.7 |
| 20260901092306 | 72 | 239 | 0.0 | 0.0 | 0.00 | 0.00 | 0.00 | 99 | 1018.5 |
| 20260901091801 | 72 | 239 | 0.0 | 0.0 | 0.00 | 0.00 | 0.00 | 99 | 1018.8 |
| 20260901091256 | 72 | 239 | 0.0 | 0.0 | 0.00 | 0.00 | 0.00 | 99 | 1018.8 |
| 20260901090755 | 72 | 239 | 0.0 | 0.0 | 0.00 | 0.00 | 0.00 | 99 | 1018.8 |
| 20260901090250 | 72 | 239 | 0.0 | 0.0 | 0.00 | 0.00 | 0.00 | 99 | 1018.7 |
| 20260901085746 | 72 | 239 | 0.0 | 0.0 | 0.00 | 0.00 | 0.00 | 99 | 1018.6 |
| 20260901085242 | 73 | 239 | 0.0 | 0.0 | 0.00 | 0.00 | 0.00 | 99 | 1018.5 |
| 20260901084738 | 72 | 239 | 0.0 | 0.0 | 0.00 | 0.00 | 0.00 | 99 | 1018.5 |
| 20260901084235 | 72 | 239 | 0.0 | 0.0 | 0.00 | 0.00 | 0.00 | 99 | 1018.5 |
| 20260901083734 | 72 | 231 | 0.0 | 0.0 | 0.00 | 0.00 | 0.00 | 99 | 1018.4 |
| 20260901083234 | 72 | 231 | 0.0 | 0.0 | 0.00 | 0.00 | 0.00 | 99 | 1018.7 |
| 20260901082732 | 72 | 243 | 0.0 | 0.0 | 0.00 | 0.00 | 0.00 | 99 | 1018.7 |
| 20260901082228 | 72 | 244 | 0.0 | 0.0 | 0.00 | 0.00 | 0.00 | 99 | 1018.9 |
| 20260901081723 | 72 | 242 | 0.0 | 0.0 | 0.00 | 0.00 | 0.00 | 99 | 1019.0 |
| 20260901081223 | 73 | 243 | 0.0 | 0.0 | 0.00 | 0.00 | 0.00 | 99 | 1018.6 |
| 20260901080718 | 72 | 243 | 0.0 | 0.0 | 0.00 | 0.00 | 0.00 | 99 | 1018.9 |
| 20260901080217 | 72 | 242 | 0.0 | 0.0 | 0.00 | 0.00 | 0.00 | 99 | 1018.6 |
| 20260901075711 | 72 | 242 | 0.0 | 0.0 | 0.00 | 0.00 | 0.00 | 99 | 1018.9 |
| 20260901075206 | 73 | 243 | 0.0 | 0.0 | 0.00 | 0.00 | 0.00 | 99 | 1018.9 |
| 20260901074706 | 73 | 242 | 0.0 | 0.0 | 0.00 | 0.00 | 0.00 | 99 | 1019.1 |
| 20260901074200 | 73 | 244 | 0.0 | 0.0 | 0.00 | 0.00 | 0.00 | 99 | 1018.9 |
| 20260901073657 | 72 | 219 | 0.0 | 0.0 | 0.00 | 0.00 | 0.00 | 99 | 1018.8 |
| 20260901073152 | 73 | 218 | 0.0 | 0.0 | 0.00 | 0.00 | 0.00 | 99 | 1018.9 |
| 20260901072647 | 73 | 248 | 0.0 | 0.0 | 0.00 | 0.00 | 0.00 | 99 | 1019.0 |
| 20260901072143 | 73 | 248 | 0.0 | 0.0 | 0.00 | 0.00 | 0.00 | 99 | 1019.0 |
| 20260901071642 | 73 | 254 | 0.0 | 0.0 | 0.00 | 0.00 | 0.00 | 99 | 1019.1 |
| 20260901071137 | 73 | 254 | 0.0 | 0.0 | 0.00 | 0.00 | 0.00 | 99 | 1019.1 |
| 20260901070631 | 73 | 243 | 0.0 | 0.0 | 0.00 | 0.00 | 0.00 | 99 | 1019.1 |
| 20260901070127 | 73 | 239 | 0.0 | 0.0 | 0.00 | 0.00 | 0.00 | 99 | 1019.3 |
| 20260901065620 | 73 | 239 | 0.0 | 0.0 | 0.00 | 0.00 | 0.00 | 99 | 1019.0 |
| 20260901065115 | 73 | 239 | 0.0 | 0.0 | 0.00 | 0.00 | 0.00 | 99 | 1019.2 |
| 20260901064612 | 73 | 239 | 0.0 | 0.0 | 0.00 | 0.00 | 0.00 | 99 | 1019.1 |
| 20260901064108 | 73 | 239 | 0.0 | 0.0 | 0.00 | 0.00 | 0.00 | 99 | 1019.3 |
| 20260901063605 | 73 | 239 | 0.0 | 0.0 | 0.00 | 0.00 | 0.00 | 99 | 1019.4 |
| 20260901063101 | 73 | 239 | 0.0 | 0.0 | 0.00 | 0.00 | 0.00 | 99 | 1019.4 |
| 20260901062556 | 73 | 236 | 0.0 | 0.0 | 0.00 | 0.00 | 0.00 | 99 | 1019.3 |
| 20260901062052 | 73 | 232 | 0.0 | 0.0 | 0.00 | 0.00 | 0.00 | 99 | 1019.3 |
| 20260901061548 | 73 | 231 | 0.0 | 0.0 | 0.00 | 0.00 | 0.00 | 98 | 1019.3 |
| 20260901061043 | 73 | 231 | 0.0 | 0.0 | 0.00 | 0.00 | 0.00 | 98 | 1019.5 |
| 20260901060537 | 73 | 241 | 0.0 | 0.0 | 0.00 | 0.00 | 0.00 | 98 | 1019.6 |
| 20260901060032 | 73 | 239 | 0.0 | 0.0 | 0.00 | 0.00 | 0.00 | 98 | 1019.6 |
| 20260901055528 | 73 | 239 | 0.0 | 0.0 | 0.00 | 0.00 | 0.00 | 98 | 1019.6 |
| 20260901055025 | 73 | 239 | 0.0 | 0.0 | 0.00 | 0.00 | 0.00 | 98 | 1019.6 |
| 20260901054521 | 73 | 233 | 0.0 | 0.0 | 0.00 | 0.00 | 0.00 | 98 | 1019.6 |
| 20260901054016 | 73 | 230 | 0.0 | 0.0 | 0.00 | 0.00 | 0.00 | 98 | 1019.7 |
| 20260901053506 | 73 | 233 | 0.0 | 0.0 | 0.00 | 0.00 | 0.00 | 98 | 1019.8 |
| 20260901053001 | 73 | 233 | 0.0 | 0.0 | 0.00 | 0.00 | 0.00 | 97 | 1020.0 |
| 20260901052452 | 73 | 233 | 0.0 | 0.0 | 0.00 | 0.00 | 0.00 | 97 | 1020.0 |
| 20260901051950 | 74 | 233 | 0.0 | 0.0 | 0.00 | 0.00 | 0.00 | 97 | 1019.7 |
| 20260901051446 | 74 | 233 | 0.0 | 0.0 | 0.00 | 0.00 | 0.00 | 96 | 1019.9 |
| 20260901050944 | 74 | 233 | 0.0 | 0.0 | 0.00 | 0.00 | 0.00 | 96 | 1020.0 |
| 20260901050440 | 74 | 233 | 0.0 | 0.0 | 0.00 | 0.00 | 0.00 | 96 | 1020.0 |
| 20260901045935 | 74 | 233 | 0.0 | 0.0 | 0.00 | 0.00 | 0.00 | 95 | 1020.1 |
| 20260901045430 | 74 | 233 | 0.0 | 0.0 | 0.00 | 0.00 | 0.00 | 95 | 1020.1 |
| 20260901044925 | 74 | 250 | 0.0 | 0.0 | 0.00 | 0.00 | 0.00 | 94 | 1020.1 |
| 20260901044421 | 75 | 250 | 0.0 | 0.0 | 0.00 | 0.00 | 0.00 | 94 | 1020.1 |
| 20260901043917 | 75 | 250 | 0.0 | 0.0 | 0.00 | 0.00 | 0.00 | 94 | 1020.3 |
| 20260901043413 | 75 | 250 | 0.0 | 0.0 | 0.00 | 0.00 | 0.00 | 93 | 1020.0 |
| 20260901042913 | 75 | 250 | 0.0 | 0.0 | 0.00 | 0.00 | 0.00 | 93 | 1020.2 |
| 20260901042412 | 76 | 254 | 0.0 | 0.0 | 0.00 | 0.00 | 0.00 | 92 | 1020.0 |
| 20260901041909 | 76 | 254 | 0.0 | 0.0 | 0.00 | 0.00 | 0.00 | 92 | 1020.0 |
| 20260901041409 | 76 | 231 | 0.0 | 0.0 | 0.00 | 0.00 | 0.00 | 91 | 1019.9 |
| 20260901040908 | 77 | 207 | 0.0 | 0.0 | 0.00 | 0.00 | 0.00 | 90 | 1019.8 |
| 20260901040407 | 77 | 212 | 0.0 | 0.0 | 0.00 | 0.00 | 0.00 | 90 | 1019.9 |
| 20260901035902 | 77 | 216 | 0.0 | 1.0 | 0.00 | 0.00 | 0.00 | 90 | 1019.9 |
| 20260901035401 | 77 | 178 | 0.0 | 2.0 | 0.00 | 0.00 | 0.00 | 90 | 1019.9 |
| 20260901034859 | 77 | 216 | 0.0 | 0.0 | 0.00 | 0.00 | 0.00 | 89 | 1019.8 |
| 20260901034354 | 77 | 212 | 0.0 | 1.0 | 0.00 | 0.00 | 0.00 | 89 | 1019.8 |
| 20260901033849 | 77 | 212 | 0.0 | 1.0 | 0.00 | 0.00 | 0.00 | 90 | 1019.9 |
| 20260901033349 | 77 | 185 | 0.0 | 0.0 | 0.00 | 0.00 | 0.00 | 90 | 1019.9 |
| 20260901032847 | 77 | 205 | 1.0 | 2.0 | 0.00 | 0.00 | 0.00 | 90 | 1019.7 |
| 20260901032346 | 76 | 215 | 0.0 | 0.0 | 0.00 | 0.00 | 0.00 | 91 | 1019.7 |
| 20260901031841 | 76 | 205 | 0.0 | 0.0 | 0.00 | 0.00 | 0.00 | 91 | 1019.9 |
| 20260901031337 | 76 | 231 | 0.0 | 0.0 | 0.00 | 0.00 | 0.00 | 91 | 1019.7 |
| 20260901030836 | 77 | 230 | 0.0 | 0.0 | 0.00 | 0.00 | 0.00 | 91 | 1019.9 |
| 20260901030332 | 77 | 224 | 0.0 | 0.0 | 0.00 | 0.00 | 0.00 | 90 | 1019.9 |
| 20260901025831 | 77 | 231 | 0.0 | 0.0 | 0.00 | 0.00 | 0.00 | 90 | 1020.2 |
| 20260901025326 | 77 | 231 | 0.0 | 0.0 | 0.00 | 0.00 | 0.00 | 90 | 1019.9 |
| 20260901024821 | 77 | 221 | 0.0 | 0.0 | 0.00 | 0.00 | 0.00 | 89 | 1019.8 |
| 20260901024320 | 77 | 219 | 0.0 | 0.0 | 0.00 | 0.00 | 0.00 | 88 | 1020.0 |
| 20260901023819 | 78 | 184 | 0.0 | 0.0 | 0.00 | 0.00 | 0.00 | 88 | 1019.8 |
| 20260901023314 | 78 | 149 | 1.0 | 1.0 | 0.00 | 0.00 | 0.00 | 87 | 1019.9 |
| 20260901022809 | 78 | 205 | 0.0 | 0.0 | 0.00 | 0.00 | 0.00 | 87 | 1020.0 |
| 20260901022306 | 78 | 202 | 0.0 | 1.0 | 0.00 | 0.00 | 0.00 | 86 | 1019.9 |
| 20260901021800 | 78 | 170 | 1.0 | 1.0 | 0.00 | 0.00 | 0.00 | 87 | 1020.0 |
| 20260901021255 | 78 | 193 | 0.0 | 0.0 | 0.00 | 0.00 | 0.00 | 87 | 1019.9 |
| 20260901020751 | 78 | 217 | 0.0 | 0.0 | 0.00 | 0.00 | 0.00 | 88 | 1020.1 |
| 20260901020246 | 78 | 216 | 0.0 | 0.0 | 0.00 | 0.00 | 0.00 | 88 | 1020.0 |
| 20260901015740 | 78 | 216 | 0.0 | 0.0 | 0.00 | 0.00 | 0.00 | 87 | 1020.0 |
| 20260901015237 | 78 | 203 | 0.0 | 0.0 | 0.00 | 0.00 | 0.00 | 87 | 1020.1 |
| 20260901014736 | 78 | 205 | 0.0 | 0.0 | 0.00 | 0.00 | 0.00 | 87 | 1020.1 |
| 20260901014232 | 78 | 242 | 0.0 | 0.0 | 0.00 | 0.00 | 0.00 | 87 | 1020.0 |
| 20260901013728 | 78 | 224 | 0.0 | 0.0 | 0.00 | 0.00 | 0.00 | 87 | 1020.0 |
| 20260901013223 | 78 | 213 | 0.0 | 0.0 | 0.00 | 0.00 | 0.00 | 86 | 1020.0 |
| 20260901012719 | 79 | 200 | 0.0 | 0.0 | 0.00 | 0.00 | 0.00 | 86 | 1020.0 |
| 20260901012218 | 79 | 235 | 0.0 | 0.0 | 0.00 | 0.00 | 0.00 | 85 | 1020.1 |
| 20260901011714 | 79 | 331 | 0.0 | 1.0 | 0.00 | 0.00 | 0.00 | 85 | 1019.9 |
| 20260901011214 | 79 | 191 | 0.0 | 0.0 | 0.00 | 0.00 | 0.00 | 84 | 1020.0 |
| 20260901010708 | 80 | 127 | 0.0 | 2.0 | 0.00 | 0.00 | 0.00 | 84 | 1019.8 |
| 20260901010203 | 80 | 216 | 0.0 | 1.0 | 0.00 | 0.00 | 0.00 | 83 | 1020.0 |
| 20260901005702 | 80 | 217 | 0.0 | 2.0 | 0.00 | 0.00 | 0.00 | 82 | 1019.9 |
| 20260901005158 | 81 | 227 | 0.0 | 1.0 | 0.00 | 0.00 | 0.00 | 81 | 1019.8 |
| 20260901004657 | 81 | 41 | 1.0 | 2.0 | 0.00 | 0.00 | 0.00 | 81 | 1019.9 |
| 20260901004151 | 82 | 193 | 1.0 | 2.0 | 0.00 | 0.00 | 0.00 | 80 | 1019.9 |
| 20260901003646 | 81 | 258 | 0.0 | 7.0 | 0.00 | 0.00 | 0.00 | 80 | 1019.7 |
| 20260901003145 | 81 | 164 | 0.0 | 0.0 | 0.00 | 0.00 | 0.00 | 81 | 1019.8 |
| 20260901002640 | 81 | 13 | 1.0 | 1.0 | 0.00 | 0.00 | 0.00 | 80 | 1019.8 |
| 20260901002134 | 81 | 235 | 0.0 | 0.0 | 0.00 | 0.00 | 0.00 | 80 | 1019.8 |
| 20260901001630 | 82 | 200 | 0.0 | 0.0 | 0.00 | 0.00 | 0.00 | 80 | 1019.7 |
| 20260901001125 | 82 | 201 | 0.0 | 1.0 | 0.00 | 0.00 | 0.00 | 79 | 1019.5 |
| 20260901000620 | 82 | 218 | 0.0 | 0.0 | 0.00 | 0.00 | 0.00 | 78 | 1019.5 |
| 20260901000115 | 82 | 242 | 0.0 | 0.0 | 0.00 | 0.00 | 0.00 | 77 | 1019.5 |
| 20260831235609 | 82 | 350 | 0.0 | 1.0 | 0.00 | 0.00 | 0.00 | 77 | 1019.3 |
| 20260831235104 | 82 | 250 | 0.0 | 0.0 | 0.00 | 0.00 | 0.00 | 77 | 1019.4 |
| 20260831234558 | 82 | 257 | 0.0 | 0.0 | 0.00 | 0.00 | 0.00 | 76 | 1019.5 |
| 20260831234054 | 83 | 259 | 0.0 | 0.0 | 0.00 | 0.00 | 0.00 | 75 | 1019.2 |
| 20260831233549 | 83 | 264 | 0.0 | 0.0 | 0.00 | 0.00 | 0.00 | 75 | 1019.3 |
| 20260831233045 | 83 | 256 | 0.0 | 0.0 | 0.00 | 0.00 | 0.00 | 74 | 1019.4 |
| 20260831232540 | 83 | 254 | 0.0 | 0.0 | 0.00 | 0.00 | 0.00 | 73 | 1019.4 |
| 20260831232035 | 84 | 252 | 0.0 | 0.0 | 0.00 | 0.00 | 0.00 | 72 | 1019.3 |
| 20260831231532 | 84 | 242 | 0.0 | 0.0 | 0.00 | 0.00 | 0.00 | 71 | 1019.1 |
| 20260831231027 | 85 | 240 | 0.0 | 1.0 | 0.00 | 0.00 | 0.00 | 70 | 1019.3 |
| 20260831230522 | 85 | 252 | 0.0 | 0.0 | 0.00 | 0.00 | 0.00 | 69 | 1019.1 |
| 20260831230017 | 86 | 248 | 0.0 | 0.0 | 0.00 | 0.00 | 0.00 | 68 | 1019.2 |
| 20260831225513 | 86 | 255 | 0.0 | 1.0 | 0.00 | 0.00 | 0.00 | 68 | 1019.1 |
| 20260831225012 | 86 | 248 | 0.0 | 1.0 | 0.00 | 0.00 | 0.00 | 67 | 1019.2 |
| 20260831224507 | 87 | 309 | 0.0 | 0.0 | 0.00 | 0.00 | 0.00 | 67 | 1019.0 |
| 20260831224002 | 87 | 287 | 0.0 | 1.0 | 0.00 | 0.00 | 0.00 | 66 | 1019.1 |
| 20260831223458 | 87 | 264 | 0.0 | 1.0 | 0.00 | 0.00 | 0.00 | 66 | 1019.1 |
| 20260831222954 | 88 | 266 | 1.0 | 3.0 | 0.00 | 0.00 | 0.00 | 65 | 1019.1 |
| 20260831222450 | 88 | 311 | 0.0 | 2.0 | 0.00 | 0.00 | 0.00 | 64 | 1019.3 |
| 20260831221949 | 89 | 250 | 1.0 | 1.0 | 0.00 | 0.00 | 0.00 | 63 | 1019.4 |
| 20260831221445 | 89 | 285 | 2.0 | 3.0 | 0.00 | 0.00 | 0.00 | 62 | 1019.3 |
| 20260831220940 | 89 | 337 | 0.0 | 2.0 | 0.00 | 0.00 | 0.00 | 61 | 1019.1 |
| 20260831220436 | 90 | 208 | 0.0 | 2.0 | 0.00 | 0.00 | 0.00 | 60 | 1019.0 |